STARLINK-36118

Last updated on Fri Dec 19 2025 00:02:09 GMT+0000 (Coordinated Universal Time)

1 67009U 25293G 25351.83335648 -.00969011 30181-3 -21808-2 0 9994 2 67009 69.9937 309.0248 0004124 265.8228 122.5160 15.97466435 2387
UTC large
Height (km)
Speed (km/s)
/
Latitude / Longitude
Inclination (degrees)
Orbital Period (minutes)
Azimuth
Elevation
Range (km)
Doppler Factor

Next 0 passes for location: London (51.5072 / 0.1276)

Sorry there are no passes over London.